User: anonymous   Login
Location: Petruro
(41.0333°N, 14.7833°E)
Time: 02:59:31
(UTC+00:00)
Language:

Cosmos 2151 - Orbit

View from above orbital plane
View from above orbital plane
View from above satellite
View from above satellite

Ground track
Ground track

The orbit data is extracted from the following two-line orbital elements,

1 21422U 91042A   21260.58208646  .00000260  00000-0  22858-4 0  9994
2 21422  82.5022 207.6699 0015059 140.3927 219.8396 14.92298057640136
Epoch (UTC): 17 September 2021 13:58:12
Eccentricity: 0.0015059
inclination: 82.5022°
perigee height: 580 km
apogee height: 601 km
right ascension of ascending node: 207.6699°
argument of perigee: 140.3927°
revolutions per day: 14.92298057
mean anomaly at epoch: 219.8396°
orbit number at epoch: 64013

The dashed part of the orbit path shows where the satellite is in the earth's shadow,  

DLR